Location: Kuppenheim
(48.8299°N, 8.2568°E)
Time: 07:41:12
(UTC+00:00)

Envisat - Pass Details

Date: 28 November 2022
Orbit: 763 x 765 km, 98.2° (Epoch: 04 February)

Event Time Altitude Azimuth Distance (km) Brightness Sun altitude
Rises 05:45:28 0° 359° (N) 3,246 6.0 -11.1°
Reaches altitude 10° 05:49:06 10° 332° (NNW) 2,315 5.1 -10.5°
Maximum altitude 05:51:15 13° 307° (NW) 2,122 4.7 -10.2°
Enters shadow 05:51:45 13° 301° (WNW) 2,132 4.7 -10.1°
